This is the latest recevied weather packets stored in our database for station/object KK6LZB. If no packets are shown the sender has not sent any weather packets the latest 10 day(s).
| Time | Temp. | Humidity | Pressure | Rain* | Wind** | Luminosity | Snow |
|---|---|---|---|---|---|---|---|
| 1777926443 | 20° C | 59% | 1018 hPa | 0 mm | - | 694 W/m² | - |
| 1777926141 | 19.44° C | 60% | 1017.8 hPa | 0 mm | - | 672 W/m² | - |
| 1777925838 | 20.56° C | 60% | 1017.9 hPa | 0 mm | - | 429 W/m² | - |
| 1777925535 | 20° C | 62% | 1017.9 hPa | 0 mm | - | 724 W/m² | - |
| 1777925233 | 20° C | 62% | 1017.9 hPa | 0 mm | - | 741 W/m² | - |
| 1777924928 | 20.56° C | 61% | 1018.1 hPa | 0 mm | - | 739 W/m² | - |
| 1777924625 | 20.56° C | 61% | 1018 hPa | 0 mm | - | 739 W/m² | - |
| 1777924321 | 20.56° C | 61% | 1018 hPa | 0 mm | - | 740 W/m² | - |
| 1777924018 | 20° C | 60% | 1018.1 hPa | 0 mm | - | 742 W/m² | - |
| 1777923714 | 20.56° C | 60% | 1018.3 hPa | 0 mm | - | 731 W/m² | - |
| 1777923411 | 20° C | 59% | 1018.2 hPa | 0 mm | - | 715 W/m² | - |
| 1777923109 | 20.56° C | 58% | 1018.1 hPa | 0 mm | - | 778 W/m² | - |
| 1777922806 | 20.56° C | 58% | 1018.3 hPa | 0 mm | - | 686 W/m² | - |
| 1777922504 | 20.56° C | 59% | 1018.4 hPa | 0 mm | - | 634 W/m² | - |
| 1777922202 | 19.44° C | 58% | 1018.1 hPa | 0 mm | - | 741 W/m² | - |
| 1777921898 | 20° C | 57% | 1018.3 hPa | 0 mm | - | 715 W/m² | - |
| 1777921594 | 20.56° C | 57% | 1018.3 hPa | 0 mm | - | 635 W/m² | - |
| 1777921291 | 20° C | 57% | 1018.3 hPa | 0 mm | - | 682 W/m² | - |
| 1777920987 | 20° C | 58% | 1018.4 hPa | 0 mm | - | 747 W/m² | - |
| 1777920684 | 20.56° C | 59% | 1018.3 hPa | 0 mm | - | 671 W/m² | - |
| 1777920380 | 20.56° C | 57% | 1018.2 hPa | 0 mm | - | 724 W/m² | - |
| 1777920075 | 20° C | 56% | 1018.3 hPa | 0 mm | - | 698 W/m² | - |
| 1777919773 | 20.56° C | 56% | 1018.4 hPa | 0 mm | - | 700 W/m² | - |
| 1777919470 | 20.56° C | 54% | 1018 hPa | 0 mm | - | 721 W/m² | - |
| 1777919167 | 20° C | 57% | 1018.2 hPa | 0 mm | - | 693 W/m² | - |
* Rain latest hour (hover to see other rain measurements)
** Current wind speed in m/s (hover to see current wind gust speed)